INTELSAT 1R (IS-1R)     
1 26608U 00072A   19259.86619168 -.00000143  00000-0  00000-0 0  9991
2 26608   2.0745  88.5708 0001119 129.9450 245.9531  1.00272199 16603
PHASE 3D (AO-40)        
1 26609U 00072B   19260.45712178 -.00000138  00000-0  00000+0 0  9997
2 26609   9.2258  60.0763 7957174  64.7786 354.9037  1.25587401 86672
STRV 1C                 
1 26610U 00072C   19259.42328823 -.00000024  00000-0  12040-2 0  9998
2 26610   6.5237 106.5685 7341570  10.2746 359.1461  2.03499555139888
STRV 1D                 
1 26611U 00072D   19259.63815703 -.00000370  00000-0  36151-3 0  9994
2 26611   6.5101 107.5252 7344004   8.3377 266.1949  2.03359353139938
ARIANE 5 R/B            
1 26612U 00072E   19259.38929085  .00000342  00000-0  52324-3 0  9994
2 26612   6.0835 141.3211 7353036 303.0961   6.9082  2.01739567138864
ARIANE 5 DEB [SYLDA]    
1 26613U 00072F   19260.43627940 -.00000379  00000-0 -31187-2 0  9993
2 26613   6.4132 115.0650 7346533 353.5658 183.9448  2.03003664139712